Weather reports worldwide

Advertisment
Ioannina, Greece (16642): temperature & dewpoint: 04.12.2018 05:00:00 - 10.12.2018 05:00:00 (EET)Ioannina, Greece (16642): reduced air pressure: 04.12.2018 05:00:00 - 10.12.2018 05:00:00 (EET)Ioannina, Greece (16642): visibility: 04.12.2018 05:00:00 - 10.12.2018 05:00:00 (EET)
Date & Time tt [°C] td [°C] ppp [hPa] vv [km]
10.12.2018 05:00:00 - - - -
10.12.2018 04:00:00 - - - -
10.12.2018 03:00:00 - - - -
10.12.2018 02:00:00 - - - -
10.12.2018 01:00:00 - - - -
10.12.2018 00:00:00 - - - -
09.12.2018 23:00:00 - - - -
09.12.2018 22:00:00 - - - -
09.12.2018 21:00:00 8,0 7,0 - 10
09.12.2018 20:00:00 9,0 7,3 1012,6 10
09.12.2018 19:00:00 10,0 8,0 - 10
09.12.2018 18:00:00 10,0 8,0 - 10
09.12.2018 17:00:00 10,8 7,9 1011,8 10
09.12.2018 16:00:00 11,0 8,0 - 10
09.12.2018 15:00:00 - - - -
09.12.2018 14:00:00 10,4 7,0 1012,2 10
09.12.2018 13:00:00 10,0 9,0 - 10
09.12.2018 12:00:00 9,0 9,0 - 10
09.12.2018 11:00:00 8,4 8,4 1013,3 7
09.12.2018 10:00:00 8,0 8,0 - 4,0
09.12.2018 09:00:00 7,0 7,0 - 4,5
09.12.2018 08:00:00 7,0 6,6 1013,5 10
09.12.2018 07:00:00 - - - -
09.12.2018 06:00:00 - - - -
09.12.2018 05:00:00 - - - -
09.12.2018 04:00:00 - - - -
09.12.2018 03:00:00 - - - -
09.12.2018 02:00:00 - - - -
09.12.2018 01:00:00 - - - -
09.12.2018 00:00:00 - - - -
08.12.2018 23:00:00 - - - -
08.12.2018 22:00:00 - - - -
08.12.2018 21:00:00 - - - -
08.12.2018 20:00:00 8,2 7,3 1013,5 8
08.12.2018 19:00:00 - - - -
08.12.2018 18:00:00 - - - -
08.12.2018 17:00:00 - - - -
08.12.2018 16:00:00 - - - -
08.12.2018 15:00:00 - - - -
08.12.2018 14:00:00 6,6 2,7 1017,1 10
08.12.2018 13:00:00 7,0 3,0 - 10
08.12.2018 12:00:00 6,0 3,0 - 10
08.12.2018 11:00:00 5,0 2,5 1019,6 10
08.12.2018 10:00:00 4,0 2,0 - 10
08.12.2018 09:00:00 3,0 1,0 - 10
08.12.2018 08:00:00 2,0 0,4 1020,6 10
08.12.2018 07:00:00 - - - -
08.12.2018 06:00:00 - - - -
08.12.2018 05:00:00 - - - -
08.12.2018 04:00:00 - - - -
08.12.2018 03:00:00 - - - -
08.12.2018 02:00:00 - - - -
08.12.2018 01:00:00 - - - -
08.12.2018 00:00:00 - - - -
07.12.2018 23:00:00 - - - -
07.12.2018 22:00:00 - - - -
07.12.2018 21:00:00 2,0 1,0 - 10
07.12.2018 20:00:00 3,4 1,9 1022,6 10
07.12.2018 19:00:00 5,0 0,0 - 10
07.12.2018 18:00:00 - - - -
07.12.2018 17:00:00 6,0 -0,9 1021,8 10
07.12.2018 16:00:00 - - - -
07.12.2018 15:00:00 - - - -
07.12.2018 14:00:00 9,2 -5,6 1021,5 10
07.12.2018 13:00:00 7,0 -2,0 - 10
07.12.2018 12:00:00 6,0 -2,0 - 10
07.12.2018 11:00:00 2,6 -2,0 1024,7 10
07.12.2018 10:00:00 1,0 -2,0 - 10
07.12.2018 09:00:00 -1,0 -3,0 - 10
07.12.2018 08:00:00 -4,4 -6,3 1026,0 10
07.12.2018 07:00:00 - - - -
07.12.2018 06:00:00 - - - -
07.12.2018 05:00:00 - - - -
07.12.2018 04:00:00 - - - -
07.12.2018 03:00:00 - - - -
07.12.2018 02:00:00 - - - -
07.12.2018 01:00:00 - - - -
07.12.2018 00:00:00 - - - -
06.12.2018 23:00:00 - - - -
06.12.2018 22:00:00 - - - -
06.12.2018 21:00:00 2,0 0,0 - 10
06.12.2018 20:00:00 3,2 -1,9 1021,6 10
06.12.2018 19:00:00 6,0 -1,0 - 10
06.12.2018 18:00:00 7,0 0,0 - 10
06.12.2018 17:00:00 8,4 -0,2 1019,8 10
06.12.2018 16:00:00 - - - -
06.12.2018 15:00:00 - - - -
06.12.2018 14:00:00 10,0 -4,2 1019,5 10
06.12.2018 13:00:00 10,0 -5,0 - 10
06.12.2018 12:00:00 8,0 -3,0 - 10
06.12.2018 11:00:00 6,2 -4,1 1021,8 10
06.12.2018 10:00:00 4,0 -1,0 - 10
06.12.2018 09:00:00 1,0 1,0 - 10
06.12.2018 08:00:00 0,2 0,2 1022,5 10
06.12.2018 07:00:00 - - - -
06.12.2018 06:00:00 - - - -
06.12.2018 05:00:00 - - - -
06.12.2018 04:00:00 - - - -
06.12.2018 03:00:00 - - - -
06.12.2018 02:00:00 - - - -
06.12.2018 01:00:00 - - - -
06.12.2018 00:00:00 - - - -
05.12.2018 23:00:00 - - - -
05.12.2018 22:00:00 - - - -
05.12.2018 21:00:00 8,0 3,0 - 10
05.12.2018 20:00:00 8,6 3,0 1018,0 10
05.12.2018 19:00:00 11,0 4,0 - 10
05.12.2018 18:00:00 12,0 3,0 - 10
05.12.2018 17:00:00 13,8 2,6 1015,9 10
05.12.2018 16:00:00 - - - -
05.12.2018 15:00:00 - - - -
05.12.2018 14:00:00 14,4 -1,1 1016,2 10
05.12.2018 13:00:00 13,0 2,0 - 10
05.12.2018 12:00:00 12,0 -1,0 - 10
05.12.2018 11:00:00 9,6 -1,8 1017,5 10
05.12.2018 10:00:00 5,0 1,0 - 10
05.12.2018 09:00:00 4,0 4,0 - 10
05.12.2018 08:00:00 3,0 3,0 1017,8 1,0
05.12.2018 07:00:00 - - - -
05.12.2018 06:00:00 - - - -
05.12.2018 05:00:00 - - - -
05.12.2018 04:00:00 - - - -
05.12.2018 03:00:00 - - - -
05.12.2018 02:00:00 - - - -
05.12.2018 01:00:00 - - - -
05.12.2018 00:00:00 - - - -
04.12.2018 23:00:00 - - - -
04.12.2018 22:00:00 - - - -
04.12.2018 21:00:00 - - - -
04.12.2018 20:00:00 7,4 6,5 1012,9 10
04.12.2018 19:00:00 - - - -
04.12.2018 18:00:00 - - - -
04.12.2018 17:00:00 - - - -
04.12.2018 16:00:00 - - - -
04.12.2018 15:00:00 - - - -
04.12.2018 14:00:00 12,8 5,6 1010,9 10
04.12.2018 13:00:00 12,0 5,0 - 10
04.12.2018 12:00:00 12,0 6,0 - 10
04.12.2018 11:00:00 10,2 6,8 1013,0 10
04.12.2018 10:00:00 9,0 7,0 - 10
04.12.2018 09:00:00 8,0 7,0 - 10
04.12.2018 08:00:00 7,0 7,0 1013,9 4,0
04.12.2018 07:00:00 - - - -
04.12.2018 06:00:00 - - - -
04.12.2018 05:00:00 - - - -

tt = temperature
td = dewpoint
ppp = reduced air pressure
vv = visibility

Next stations